sat.trackr.live / text

‹ back to catalog

STARLINK-2543

NORAD 48278 · 2021-036C

PAYLOAD ACTIVE UNKNOWN

§ Identity

Operator
Country
US
Launch date
2021-04-29
Launch site
AFETR
Launch vehicle
Mass (kg)
RCS (m²)

Purposes: comms

External: N2YO · Heavens-Above · Gunter

§ Orbital elements

Epoch: 2026-09-14T22:26:06.056448Z

Period
94.01 min
Inclination
53.1598°
Eccentricity
0.0001431
Mean motion
15.31701804 rev/d
Perigee alt
469.8 km
Apogee alt
471.7 km
Semi-major
6,848.9 km
B*
2.7727e-5
RAAN
223.6888°
Arg perigee
100.1809°
Mean anomaly
259.9354°
Rev number
29,811

§ Raw data

STARLINK-25431 48278U 21036C   26257.93479232  .00000495  00000+0  27727-4 0  99982 48278  53.1598 223.6888 0001431 100.1809 259.9354 15.31701804298115

JSON: /api/v1/satellites/48278 · /tle

For live sub-satellite position, see the globe view (requires WebGL).

§ Visibility from observer

Set your observer location to see the next 7 days of passes ≥ 10°. The values pass through the URL so the page stays shareable.

No JS? Fill the form by hand. The geolocation button needs JavaScript.